KC9NPJ-13 Weather Reports


time (UTC)temp
C
wind
direction
speed
KPH
gust
KPH
rain 1hr
cm
rain 24hr
cm
rain mn
cm
humidity
%
barometer
mb
20260504110406 12 256 1.6 4.8 0.00 0.08 0.08 89 1010.2
20260504100406 12 194 0.0 3.2 0.00 0.08 0.08 92 1011.0
20260504081906 12 127 0.0 3.2 0.05 0.05 0.05 90 1012.1
20260504081406 12 190 0.0 1.6 0.05 0.05 0.05 90 1012.1
20260504080906 12 80 1.6 3.2 0.05 0.05 0.05 89 1012.6
20260504080406 12 275 3.2 6.4 0.05 0.05 0.05 88 1012.3
20260504070406 12 350 0.0 8.0 0.00 0.03 0.00 82 1011.4
20260504050407 13 258 0.0 0.0 0.00 0.03 0.03 69 1010.9
20260504045907 13 192 0.0 0.0 0.00 0.03 0.03 68 1011.0
20260504045407 13 252 0.0 1.6 0.00 0.03 0.03 67 1011.0
20260504044907 13 187 0.0 1.6 0.00 0.03 0.03 66 1011.2
20260504044407 13 164 0.0 1.6 0.00 0.03 0.03 66 1011.2
20260504043907 13 255 0.0 1.6 0.00 0.03 0.03 66 1011.3
20260504043407 13 257 0.0 1.6 0.00 0.03 0.03 66 1011.2
20260504042907 13 250 0.0 1.6 0.00 0.03 0.03 65 1011.4
20260504042407 13 248 0.0 1.6 0.00 0.03 0.03 65 1011.5
20260504041907 13 206 0.0 1.6 0.00 0.03 0.03 65 1011.5
20260504041407 13 261 0.0 1.6 0.00 0.03 0.03 65 1011.6
20260504040907 14 259 0.0 1.6 0.00 0.03 0.03 65 1011.7
20260504040407 14 169 0.0 1.6 0.00 0.03 0.03 65 1011.8
20260504035907 14 188 0.0 1.6 0.00 0.03 0.03 66 1011.8
20260504035407 14 157 0.0 1.6 0.00 0.03 0.03 65 1011.9
20260504034907 14 165 0.0 1.6 0.00 0.03 0.03 65 1011.8
20260504034407 14 179 0.0 1.6 0.00 0.03 0.03 65 1011.8
20260504033907 14 178 0.0 1.6 0.00 0.03 0.03 63 1012.0
20260504033407 14 169 0.0 1.6 0.00 0.03 0.03 63 1011.9
20260504032907 14 180 0.0 3.2 0.00 0.03 0.03 62 1011.8
20260504032407 14 187 0.0 1.6 0.00 0.03 0.03 62 1011.8
20260504031907 15 235 0.0 3.2 0.00 0.03 0.03 62 1012.0
20260504031407 15 227 0.0 3.2 0.00 0.03 0.03 61 1011.9
20260504030907 15 188 1.6 4.8 0.00 0.03 0.03 61 1011.9
20260504030407 15 264 3.2 6.4 0.00 0.03 0.03 60 1011.9
20260504025907 15 246 1.6 6.4 0.00 0.03 0.03 59 1011.9
20260504025407 15 265 1.6 8.0 0.00 0.03 0.03 59 1011.9
20260504024907 15 254 3.2 6.4 0.00 0.03 0.03 59 1011.9
20260504024407 15 264 1.6 6.4 0.00 0.03 0.03 58 1012.0
20260504023907 15 254 1.6 4.8 0.00 0.03 0.03 58 1012.0
20260504023407 15 245 1.6 3.2 0.00 0.03 0.03 59 1012.1
20260504022907 15 230 0.0 4.8 0.00 0.03 0.03 59 1012.1
20260504022407 15 248 0.0 1.6 0.00 0.03 0.03 59 1012.2
20260504021907 15 228 1.6 4.8 0.00 0.03 0.03 57 1012.3
20260504021407 15 246 1.6 3.2 0.00 0.03 0.03 57 1012.2
20260504020907 16 252 0.0 3.2 0.00 0.03 0.03 56 1012.2
20260504020407 16 255 1.6 3.2 0.00 0.03 0.03 56 1012.1
20260504015907 16 228 1.6 6.4 0.00 0.03 0.03 56 1011.8
20260504015407 16 256 3.2 8.0 0.00 0.03 0.03 55 1011.9
20260504014907 16 227 3.2 9.7 0.00 0.03 0.03 55 1011.8
20260504014407 16 221 3.2 6.4 0.00 0.03 0.03 55 1011.9
20260504013907 16 244 3.2 11.3 0.00 0.03 0.03 54 1011.9
20260504013407 16 239 3.2 8.0 0.00 0.03 0.03 54 1012.0
20260504012907 16 255 3.2 9.7 0.00 0.03 0.03 54 1011.8
20260504012407 16 253 1.6 6.4 0.00 0.03 0.03 54 1011.9
20260504011907 17 246 3.2 8.0 0.00 0.03 0.03 53 1011.9
20260504011407 17 223 3.2 6.4 0.00 0.03 0.03 51 1012.0
20260504010908 17 260 3.2 8.0 0.00 0.03 0.03 51 1012.3
20260504010408 17 242 3.2 11.3 0.00 0.03 0.03 51 1012.2
20260504005908 17 230 3.2 8.0 0.00 0.03 0.03 50 1012.1
20260504005408 17 257 3.2 6.4 0.00 0.03 0.03 50 1012.2
20260504004908 17 196 3.2 9.7 0.00 0.03 0.03 49 1012.3
20260504004408 17 252 3.2 8.0 0.00 0.03 0.03 49 1012.2
20260504003908 18 254 4.8 8.0 0.00 0.03 0.03 49 1012.2
20260504003408 18 254 4.8 11.3 0.00 0.03 0.03 49 1012.4
20260504002908 18 263 4.8 8.0 0.00 0.03 0.03 48 1012.4
20260504002408 18 310 6.4 14.5 0.00 0.03 0.03 48 1012.7
20260504001908 18 225 6.4 12.9 0.00 0.03 0.03 47 1012.7
20260504001408 18 252 8.0 14.5 0.00 0.03 0.03 47 1012.6
20260504000908 18 239 8.0 17.7 0.00 0.03 0.03 46 1012.4
20260504000409 18 221 8.0 14.5 0.00 0.03 0.03 46 1012.6
20260503235908 18 258 9.7 22.5 0.00 0.03 0.03 45 1012.6
20260503235408 19 263 9.7 22.5 0.00 0.03 0.03 45 1012.5
20260503234908 19 260 11.3 17.7 0.00 0.03 0.03 44 1012.5
20260503234408 19 213 11.3 22.5 0.00 0.03 0.03 45 1012.5
20260503233908 19 267 11.3 22.5 0.00 0.03 0.03 44 1012.6
20260503233408 19 244 11.3 22.5 0.00 0.03 0.03 45 1012.6
20260503232908 19 236 12.9 24.1 0.00 0.03 0.03 45 1012.7
20260503232408 19 244 9.7 22.5 0.00 0.03 0.03 45 1012.5
20260503231908 19 229 9.7 16.1 0.00 0.03 0.03 46 1012.5
20260503231408 19 257 12.9 19.3 0.00 0.03 0.03 45 1012.6
20260503230908 19 244 12.9 25.7 0.00 0.03 0.03 45 1012.4
20260503230408 19 287 12.9 25.7 0.00 0.03 0.03 44 1012.4
20260503225908 19 259 12.9 24.1 0.00 0.03 0.03 44 1012.4
20260503225408 19 238 14.5 24.1 0.00 0.03 0.03 44 1012.4
20260503224908 19 250 16.1 27.4 0.00 0.03 0.03 44 1012.4
20260503224408 19 240 14.5 27.4 0.00 0.03 0.03 42 1012.5
20260503223908 19 252 16.1 27.4 0.00 0.03 0.03 42 1012.5
20260503223408 20 228 16.1 41.8 0.00 0.03 0.03 42 1012.4
20260503222908 20 246 14.5 27.4 0.00 0.03 0.03 44 1012.5
20260503222408 20 261 16.1 25.7 0.00 0.03 0.03 43 1012.4
20260503221908 20 246 14.5 24.1 0.00 0.03 0.03 42 1012.7
20260503221408 20 225 14.5 27.4 0.00 0.03 0.03 42 1012.7
20260503220908 20 236 16.1 25.7 0.00 0.03 0.03 43 1012.8
20260503220408 20 259 17.7 29.0 0.00 0.03 0.03 42 1012.8
20260503215908 20 252 17.7 32.2 0.00 0.03 0.03 43 1012.9
20260503215408 20 241 16.1 32.2 0.00 0.03 0.03 44 1012.9
20260503214908 20 253 14.5 27.4 0.00 0.03 0.03 44 1012.9
20260503214408 20 265 14.5 30.6 0.00 0.03 0.03 44 1013.0
20260503213908 20 254 16.1 27.4 0.00 0.03 0.03 44 1013.1
20260503213408 20 265 16.1 35.4 0.00 0.03 0.03 43 1013.1
20260503212908 20 222 16.1 30.6 0.00 0.03 0.03 46 1013.5
20260503212408 20 281 16.1 29.0 0.00 0.03 0.03 45 1013.5
20260503211908 20 274 14.5 29.0 0.00 0.03 0.03 44 1013.5
20260503211408 20 226 14.5 29.0 0.00 0.03 0.03 47 1013.6
20260503210908 19 217 14.5 27.4 0.00 0.03 0.03 46 1013.8
20260503210408 20 261 14.5 24.1 0.00 0.03 0.03 48 1014.0
20260503205908 19 234 14.5 24.1 0.00 0.03 0.03 48 1014.1
20260503205408 19 271 14.5 24.1 0.00 0.03 0.03 48 1014.2
20260503204908 19 157 17.7 30.6 0.00 0.03 0.03 47 1014.2
20260503204408 19 251 17.7 30.6 0.00 0.03 0.03 43 1014.4
20260503203908 19 274 17.7 29.0 0.00 0.03 0.03 46 1014.4
20260503203408 19 218 16.1 30.6 0.00 0.03 0.03 45 1014.5
20260503202908 19 252 14.5 29.0 0.00 0.03 0.03 46 1014.6
20260503202408 19 275 14.5 30.6 0.00 0.03 0.03 46 1014.7
20260503201908 19 222 14.5 29.0 0.00 0.03 0.03 48 1014.8
20260503201408 19 230 14.5 22.5 0.00 0.03 0.03 48 1014.9
20260503200908 19 273 16.1 29.0 0.00 0.03 0.03 47 1015.1
20260503200408 19 242 16.1 29.0 0.00 0.03 0.03 49 1015.3
20260503195908 18 229 12.9 27.4 0.00 0.03 0.03 47 1015.6
20260503195408 18 287 14.5 25.7 0.00 0.03 0.03 51 1016.0
20260503194908 18 244 16.1 30.6 0.00 0.03 0.03 48 1016.1
20260503194408 18 273 14.5 30.6 0.00 0.03 0.03 50 1016.3
20260503193909 18 262 12.9 38.6 0.00 0.03 0.03 50 1016.3
20260503193409 18 207 16.1 32.2 0.00 0.03 0.03 48 1016.5
20260503192909 18 229 16.1 30.6 0.00 0.03 0.03 48 1016.5
20260503192409 18 275 14.5 29.0 0.00 0.03 0.03 48 1016.6
20260503191909 18 207 12.9 24.1 0.00 0.03 0.03 53 1016.8
20260503191409 18 280 12.9 29.0 0.00 0.03 0.03 50 1016.8
20260503190909 18 259 12.9 20.9 0.00 0.03 0.03 53 1016.9
20260503190409 17 272 17.7 25.7 0.00 0.03 0.03 48 1016.9
20260503185909 18 248 17.7 29.0 0.00 0.03 0.03 50 1017.0
20260503185409 18 254 16.1 29.0 0.00 0.03 0.03 50 1017.0
20260503184909 18 256 17.7 27.4 0.00 0.03 0.03 50 1017.0
20260503184409 17 243 17.7 30.6 0.00 0.03 0.03 52 1017.3
20260503183909 17 290 14.5 32.2 0.00 0.03 0.03 53 1017.6
20260503183409 18 273 12.9 24.1 0.00 0.03 0.03 51 1017.8
20260503182909 17 235 12.9 27.4 0.00 0.03 0.03 52 1017.9
20260503182409 17 269 12.9 20.9 0.00 0.03 0.03 53 1018.0
20260503181909 17 236 12.9 24.1 0.00 0.03 0.03 51 1018.2
20260503181409 17 230 12.9 19.3 0.00 0.03 0.03 53 1018.1
20260503180909 17 215 12.9 24.1 0.00 0.03 0.03 53 1018.3
20260503180409 17 243 16.1 25.7 0.00 0.03 0.03 53 1018.2
20260503175909 17 251 16.1 32.2 0.00 0.03 0.03 53 1018.4
20260503175409 17 244 16.1 24.1 0.00 0.03 0.03 52 1018.6
20260503174909 17 250 14.5 25.7 0.00 0.03 0.03 52 1018.7
20260503174409 17 251 12.9 22.5 0.00 0.03 0.03 52 1018.9
20260503173909 17 254 11.3 22.5 0.00 0.03 0.03 55 1019.1
20260503173409 17 315 9.7 24.1 0.00 0.03 0.03 52 1019.2
20260503172909 17 241 11.3 20.9 0.00 0.03 0.03 55 1019.2
20260503172409 17 288 12.9 19.3 0.00 0.03 0.03 54 1019.4
20260503171909 17 252 11.3 24.1 0.00 0.03 0.03 52 1019.4
20260503171409 17 260 11.3 24.1 0.00 0.03 0.03 54 1019.4
20260503170909 16 231 12.9 24.1 0.00 0.03 0.03 54 1019.6
20260503170409 16 258 11.3 25.7 0.00 0.03 0.03 52 1019.7
20260503150909 13 248 12.9 22.5 0.00 0.18 0.03 63 1020.9
20260503150409 13 263 12.9 24.1 0.00 0.18 0.03 63 1020.9
20260503131410 8 249 3.2 11.3 0.00 0.18 0.03 88 1021.0
20260503130910 8 254 3.2 11.3 0.00 0.18 0.03 90 1021.1
20260503130410 8 244 3.2 6.4 0.00 0.18 0.03 90 1021.0